Regional Weather Roundup
Issued by NWS San Diego, CA

Home | Current Version | Previous Version | Text Only | Print | Product List | Glossary On
Versions: 1 2 3 4 5 6 7 8 9 10 11 12 13 14 15 16 17 18 19 20 21 22 23 24 25 26 27 28 29 30 31 32 33 34 35 36 37 38 39 40 41 42 43 44 45 46 47 48 49 50
000
ASUS46 KSGX 260411
RWRSGX
SAN DIEGO HOURLY WEATHER ROUNDUP
NATIONAL WEATHER SERVICE SAN DIEGO CA
900 PM PDT SUN JUN 25 2017

NOTE: "FAIR" INDICATES FEW OR NO CLOUDS BELOW 12,000 FEET WITH NO
SIGNIFICANT WEATHER AND/OR OBSTRUCTIONS TO VISIBILITY.

CAZ042-043-060-061-PZZ750-775-260500-

GREATER SAN DIEGO AREA

CITY           SKY/WX    TMP DP  RH WIND       PRES   REMARKS
SAN DIEGO AP   PTCLDY    68  63  84 VRB6      29.90R
NATIONAL CITY    N/A     72  64  76 SW1       29.89R
CHULA VISTA      N/A     68  64  87 SW3       29.82R
IMPERIAL BEACH CLOUDY    63  62  97 S3        29.91R FOG
BROWN FIELD    CLEAR     65  60  84 CALM      29.90R
MIRAMAR MCAS   PTCLDY    73  59  61 NW5       29.89R
MONTGOMERY FLD CLEAR     77  60  55 NW6       29.89R
GILLESPIE FLD  CLEAR     82  59  44 CALM      29.88

$$

NORTH SAN DIEGO COUNTY

CITY           SKY/WX    TMP DP  RH WIND       PRES   REMARKS
CAMP PENDLETON CLEAR     64  62  93 W5        29.88R
OCEANSIDE AP   CLEAR     67  62  84 W5        29.87S
OCEANSIDE HBR    N/A     64  62  91 CALM      29.91R
VISTA            N/A     71  63  74 CALM      29.85R
CARLSBAD       CLEAR     70  61  73 CALM      29.88R
DEL MAR          N/A     65  62  88 CALM      29.90S
LA JOLLA SCRIP   N/A     63  63  99 CALM      29.88S
FALLBROOK        N/A     71  64  78 CALM      29.88R
ESCONDIDO        N/A     80  64  56 NW2       29.89R
SAN MARCOS       N/A     75  63  64 CALM      29.89R
POWAY            N/A     79  64  59 CALM      29.89R

$$

EAST SAN DIEGO COUNTY

CITY           SKY/WX    TMP DP  RH WIND       PRES   REMARKS
RAMONA         CLEAR     77  61  57 CALM      29.94R
SANTEE LAKES     N/A     81  63  53 CALM      29.86R
LA MESA          N/A     79  63  57 CALM      29.81R
JAMUL            N/A     80  63  56 CALM      29.88R
DESCANSO N       N/A     84  46  26 CALM      29.79R
CAMPO            N/A     82  47  29 SW8       29.98R

$$

ORANGE COUNTY AND THE LOS ANGELES BASIN

CITY           SKY/WX    TMP DP  RH WIND       PRES   REMARKS
JOHN WAYNE AP  CLEAR     72  62  71 CALM      29.88R
LAGUNA BEACH     N/A    N/A N/A N/A CALM      29.82S
LAKE FOREST FR   N/A     84  42  22 N3        29.76F
HUNTINGTON BCH   N/A     66  63  91 W1        29.89S
LOS ALAMITOS   FAIR      67  60  78 S6        29.87S
FULLERTON      CLEAR     75  60  59 CALM      29.86S
LONG BEACH     CLEAR     72  57  59 NW7       29.87S
L.A. AP        CLEAR     68  60  75 CALM      29.87F
L.A. DOWNTOWN  CLEAR     72  61  68 CALM      29.87S

$$

THE INLAND EMPIRE

CITY           SKY/WX    TMP DP  RH WIND       PRES   REMARKS
CORONA         CLEAR     81  57  43 NW9       29.89R
CHINO          CLEAR     78  61  55 NW5       29.90R
ONTARIO        CLEAR     81  59  47 W5        29.90R
SAN BERNARDINO CLEAR     86  55  35 SW5       29.97R
RIVERSIDE AP   CLEAR     84  58  40 CALM      29.90R
MORENO VALLEY    N/A     85  56  36 W5        28.05R
MARCH ARB      CLEAR     80  57  44 NW8       29.93R
HORSETHIEF CYN   N/A     85  48  27 N8        29.85S
PERRIS           N/A     85  58  40 NW6       29.92R
HEMET EAST       N/A     88  43  20 CALM      29.92R
FRENCH VALLEY  FAIR      86  57  37 E5        29.92R
TEMECULA         N/A     86  62  44 S6        29.94R

$$

SAN BERNARDINO AND RIVERSIDE COUNTY MOUNTAINS

CITY           SKY/WX    TMP DP  RH WIND       PRES   REMARKS
BIG BEAR AP    CLEAR     66  34  30 CALM      30.33S
PINE COVE        N/A     73  35  25 NW3       29.85R

$$

SOUTHERN DESERT INCLUDING THE COACHELLA VALLEY

CITY           SKY/WX    TMP DP  RH WIND       PRES   REMARKS
PALM SPRINGS   CLEAR    108  28   6 NW15G28   29.77R HX 100
THOUSAND PALMS   N/A    105  35   9 NW13      29.72R HX  98
PALM DESERT      N/A    107  34   8 NW3       31.39  HX 100
THERMAL        CLEAR    105  33   8 N13       29.70R HX  98
BLYTHE         PTCLDY   108  52  15 SW22      29.70  HX 105
IMPERIAL AP    MOCLDY    99  50  19 W8        29.71R HX  96
EL CENTRO NAS  CLEAR    100  37  11 SW13      29.73R HX  95
YUMA AZ        CLEAR     96  63  33 S8        29.74R HX  97
MEXICALI       CLEAR     91  64  40 SE6       29.75R

$$

UPPER DESERT

CITY           SKY/WX    TMP DP  RH WIND       PRES   REMARKS
VICTORVILLE AP CLEAR     91  28  10 NW9G20    30.02R
HESPERIA         N/A     91  37  15 NW2       29.93R
PALMDALE       CLEAR     91  40  16 W12       30.01R
LANCASTER      CLEAR     89  37  16 W10       29.98R
EDWARDS AFB    CLEAR     93  29  10 W14G21    29.95R
DAGGETT        CLEAR     97  24   7 W17       29.90R
29 PALMS N     CLEAR     98  27   8 W17       29.96R

$$

REGIONAL REPORTS

CITY           SKY/WX    TMP DP  RH WIND       PRES   REMARKS
SANTA BARBARA  CLEAR     66  61  84 E5        29.86S
SANDBERG       CLEAR     82  42  24 NW12      30.18S
LAS VEGAS NV   PTCLDY   104  13   4 SW17G29   29.83R HX  96
PHOENIX AZ     PTCLDY   106  44  12 W7        29.76R HX 101
TIJUANA        CLEAR     68  61  77 W5        29.93R
ENSENADA NW      N/A     65  32  29 CALM      29.88R

$$

OFFSHORE ISLANDS

CITY           SKY/WX    TMP DP  RH WIND       PRES   REMARKS
CATALINA ARPT  CLEAR     87  32  14 W12       29.96S
SAN NICOLAS IS CLEAR     71  39  31 W20       29.91S

$$

MARINE AND OFFSHORE BUOY REPORTS

STATION/POSITION SKY/WX   TEMP    WIND        PRES    VSBY  SWELL
                          AIR SEA DIR/SP/G                  HT/PER/DIR
                          (F)     (DEG/KT/KT) (MB)    (MI)  (FT/S/D)
TANNER BANKS               61 62  310/ 19/ 23 1013.0          3/220/14
S CLEMENTE BASIN              64  300/  6/  8 1012.4R         5/240/14
SAN NICOLAS IS.               60                N/A           3/200/14
SO. S. ROSA ISLA           56 56  300/ 21/ 25 1013.0R         3/210/15
W. S. BARBARA CH           56 55  310/ 23/ 29 1013.0R         2/250/14
M. S. BARBARA CH           61 61  210/ 16/ 21 1012.0R         2/250/14
S. MONICA BASIN            64 65   10/  4/  6 1011.4R         5/260/ 6
S PEDRO CHANNEL               65                N/A           2/170/13
CMP PENDLETON NS              64                N/A           2/220/13
OCEANSIDE OFFSHR              65                N/A           3/220/14
TORREY PINES OTR              67                N/A           3/210/14
SAN DIEGO BAY                 70              1012.4R
POINT LOMA SOUTH              65                N/A           3/220/14

$$





USA.gov is the U.S. government's official web portal to all federal, state and local government web resources and services.